Weather History for Peachtree City, GA

Change the Weather History Date:

Friday, October 4, 2013

  Actual Average Record
Temperature  
Mean Temperature 72 °F 65 °F  
Max Temperature 86 °F 78 °F 87 °F (2005)
Min Temperature 58 °F 53 °F 42 °F (2011)
Degree Days  
Heating Degree Days 0 2  
Month to date heating degree days 0 8  
Since 1 July heating degree days 1 21  
Cooling Degree Days 7 3  
Month to date cooling degree days 21 12  
Year to date cooling degree days 1522 1620  
Growing Degree Days 22 (Base 50)    
Moisture  
Dew Point 62 °F    
Average Humidity 71    
Maximum Humidity 100    
Minimum Humidity 42    
Precipitation  
Precipitation 0.00 in 0.14 in 1.17 in (1999)
Month to date precipitation 0.00 0.55  
Snow  
Snow 0.00 in - - ()
Month to date snowfall 0.0  
Since 1 July snowfall 0.0  
Since 1 September snowfall 0.0  
Snow Depth 0.00 in    
Sea Level Pressure  
Sea Level Pressure 30.13 in    
Wind  
Wind Speed 1 mph (ENE)    
Max Wind Speed 8 mph    
Max Gust Speed 10 mph    
Visibility 8 miles    
Events      
T = Trace of Precipitation, MM = Missing Value Source: NWS Daily Summary

Daily Weather History Graph

Daily Weather History Graph

Search for Another Location

Airport:

Trip Planner

Search our weather history database for the weather conditions in past years. The results will help you decide how hot, cold, wet, or windy it might be!

Date:

Astronomy

Oct. 04, 2013 Rise Set
Actual Time 7:34 AM EDT 7:18 PM EDT
Civil Twilight 7:10 AM EDT 7:43 PM EDT
Nautical Twilight 6:41 AM EDT 8:11 PM EDT
Astronomical Twilight 6:12 AM EDT 8:40 PM EDT
Moon 7:08 AM EDT (10/4) 7:02 PM EDT (10/4)
Length of Visible Light 12h 33m
Length of Day
11h 43m
Waning Crescent, 0% of the Moon is Illuminated
Oct 4
Waning Crescent
Oct 4
New
Oct 11
First Quarter
Oct 18
Full
Oct 26
Last Quarter

Hourly Weather History & Observations

Time (EDT) Temp. Heat Index Dew Point Humidity Pressure Visibility Wind Dir Wind Speed Gust Speed Precip Events Conditions
12:53 AM 62.1 °F - 61.0 °F 96% 30.12 in 6.0 mi Calm Calm - N/A   Clear
1:53 AM 61.0 °F - 60.1 °F 97% 30.12 in 6.0 mi Calm Calm - N/A   Clear
2:53 AM 61.0 °F - 60.1 °F 97% 30.12 in 5.0 mi Calm Calm - N/A   Clear
3:53 AM 60.1 °F - 59.0 °F 96% 30.11 in 5.0 mi Calm Calm - N/A   Clear
4:53 AM 59.0 °F - 57.9 °F 96% 30.10 in 6.0 mi Calm Calm - N/A   Clear
5:53 AM 59.0 °F - 57.9 °F 96% 30.11 in 6.0 mi Calm Calm - N/A   Clear
6:53 AM 57.9 °F - 57.0 °F 97% 30.13 in 6.0 mi Calm Calm - N/A   Clear
7:53 AM 57.9 °F - 57.0 °F 97% 30.15 in 4.0 mi Calm Calm - N/A   Clear
8:53 AM 64.0 °F - 61.0 °F 90% 30.17 in 7.0 mi Calm Calm - N/A   Clear
9:53 AM 71.1 °F - 64.0 °F 78% 30.17 in 10.0 mi Calm Calm - N/A   Clear
10:53 AM 75.9 °F - 62.1 °F 62% 30.17 in 10.0 mi Calm Calm - N/A   Clear
11:53 AM 79.0 °F - 62.1 °F 56% 30.17 in 10.0 mi Calm Calm - N/A   Clear
12:53 PM 81.0 °F 81.7 °F 61.0 °F 50% 30.16 in 10.0 mi Calm Calm - N/A   Clear
1:53 PM 84.0 °F 84.4 °F 61.0 °F 46% 30.14 in 10.0 mi NNE 3.5 mph - N/A   Scattered Clouds
2:53 PM 82.0 °F 83.0 °F 62.1 °F 51% 30.12 in 10.0 mi East 5.8 mph - N/A   Mostly Cloudy
3:53 PM 84.9 °F 85.0 °F 61.0 °F 44% 30.10 in 10.0 mi NNE 3.5 mph - N/A   Clear
4:53 PM 86.0 °F 86.1 °F 61.0 °F 43% 30.09 in 10.0 mi East 3.5 mph - N/A   Clear
5:53 PM 84.0 °F 84.5 °F 62.1 °F 47% 30.09 in 10.0 mi East 4.6 mph - N/A   Clear
6:53 PM 75.0 °F - 68.0 °F 79% 30.10 in 10.0 mi Calm Calm - N/A   Clear
7:53 PM 70.0 °F - 66.9 °F 90% 30.11 in 9.0 mi Calm Calm - N/A   Clear
8:53 PM 68.0 °F - 66.0 °F 93% 30.12 in 7.0 mi Calm Calm - N/A   Clear
9:53 PM 66.0 °F - 64.9 °F 96% 30.13 in 6.0 mi Calm Calm - N/A   Clear
10:53 PM 64.9 °F - 64.0 °F 97% 30.14 in 6.0 mi Calm Calm - N/A   Clear
11:53 PM 64.0 °F - 63.0 °F 96% 30.14 in 6.0 mi Calm Calm - N/A   Clear